Time,TemperatureF,DewpointF,PressureIn,WindDirection,WindDirectionDegrees,WindSpeedMPH,WindSpeedGustMPH,Humidity,HourlyPrecipIn,Conditions,Clouds,dailyrainin,SoftwareType,DateUTC
2013-02-03 00:10:00,42.3,41.0,30.22,SE,136,0.0,-999.0,95,-99.99,,,0.00,weatherlink.com 1.10,2013-02-03 08:10:00,
2013-02-03 00:25:00,42.3,41.0,30.22,SE,136,0.0,-999.0,95,-99.99,,,0.00,weatherlink.com 1.10,2013-02-03 08:25:00,
2013-02-03 00:40:00,42.1,41.0,30.22,SE,136,0.0,-999.0,95,-99.99,,,0.00,weatherlink.com 1.10,2013-02-03 08:40:00,
2013-02-03 00:55:00,42.0,41.0,30.21,SE,136,0.0,-999.0,95,-99.99,,,0.00,weatherlink.com 1.10,2013-02-03 08:55:00,
2013-02-03 01:10:00,42.1,41.0,30.21,SE,136,0.0,-999.0,95,-99.99,,,0.00,weatherlink.com 1.10,2013-02-03 09:10:00,
2013-02-03 01:25:00,42.2,41.0,30.21,SE,136,0.0,-999.0,96,-99.99,,,0.00,weatherlink.com 1.10,2013-02-03 09:25:00,
2013-02-03 01:40:00,42.5,42.0,30.21,SE,136,0.0,-999.0,96,-99.99,,,0.00,weatherlink.com 1.10,2013-02-03 09:40:00,
2013-02-03 01:55:00,42.6,42.0,30.21,SE,136,0.0,-999.0,96,-99.99,,,0.00,weatherlink.com 1.10,2013-02-03 09:55:00,
2013-02-03 02:10:00,42.6,42.0,30.22,SE,136,0.0,-999.0,96,-99.99,,,0.00,weatherlink.com 1.10,2013-02-03 10:10:00,
2013-02-03 02:25:00,42.7,42.0,30.21,SE,136,0.0,-999.0,96,-99.99,,,0.00,weatherlink.com 1.10,2013-02-03 10:25:00,
2013-02-03 02:40:00,42.8,42.0,30.21,SE,136,0.0,-999.0,96,-99.99,,,0.00,weatherlink.com 1.10,2013-02-03 10:40:00,
2013-02-03 02:55:00,42.6,42.0,30.21,SE,136,0.0,-999.0,96,-99.99,,,0.00,weatherlink.com 1.10,2013-02-03 10:55:00,
2013-02-03 03:11:00,42.8,42.0,30.21,SE,136,0.0,-999.0,96,-99.99,,,0.00,weatherlink.com 1.10,2013-02-03 11:11:00,
2013-02-03 03:26:00,42.4,41.0,30.21,SE,136,0.0,-999.0,96,-99.99,,,0.00,weatherlink.com 1.10,2013-02-03 11:26:00,
2013-02-03 03:40:00,41.9,41.0,30.21,SE,136,0.0,-999.0,95,-99.99,,,0.00,weatherlink.com 1.10,2013-02-03 11:40:00,
2013-02-03 03:55:00,41.7,40.0,30.21,SE,136,0.0,-999.0,95,-99.99,,,0.00,weatherlink.com 1.10,2013-02-03 11:55:00,
2013-02-03 04:09:00,41.4,40.0,30.20,SE,136,0.0,-999.0,96,-99.99,,,0.00,weatherlink.com 1.10,2013-02-03 12:09:00,
2013-02-03 04:25:00,41.4,40.0,30.20,SE,136,0.0,-999.0,96,-99.99,,,0.00,weatherlink.com 1.10,2013-02-03 12:25:00,
2013-02-03 04:40:00,41.4,40.0,30.20,SE,136,0.0,-999.0,96,-99.99,,,0.00,weatherlink.com 1.10,2013-02-03 12:40:00,
2013-02-03 04:55:00,41.4,40.0,30.20,SE,136,0.0,-999.0,96,-99.99,,,0.00,weatherlink.com 1.10,2013-02-03 12:55:00,
2013-02-03 05:10:00,41.4,40.0,30.20,SE,136,0.0,-999.0,96,-99.99,,,0.00,weatherlink.com 1.10,2013-02-03 13:10:00,
2013-02-03 05:25:00,41.3,40.0,30.20,SE,136,0.0,-999.0,96,-99.99,,,0.00,weatherlink.com 1.10,2013-02-03 13:25:00,
2013-02-03 05:40:00,41.3,40.0,30.20,SE,136,0.0,-999.0,96,-99.99,,,0.00,weatherlink.com 1.10,2013-02-03 13:40:00,
2013-02-03 05:56:00,41.2,40.0,30.20,SE,136,0.0,-999.0,96,-99.99,,,0.00,weatherlink.com 1.10,2013-02-03 13:56:00,
2013-02-03 06:11:00,40.9,40.0,30.21,SE,136,0.0,-999.0,96,-99.99,,,0.00,weatherlink.com 1.10,2013-02-03 14:11:00,
2013-02-03 06:26:00,40.6,40.0,30.21,SE,136,0.0,-999.0,96,-99.99,,,0.00,weatherlink.com 1.10,2013-02-03 14:26:00,
2013-02-03 06:40:00,40.4,39.0,30.20,SE,136,0.0,-999.0,96,-99.99,,,0.00,weatherlink.com 1.10,2013-02-03 14:40:00,
2013-02-03 06:56:00,40.1,39.0,30.21,SE,136,0.0,-999.0,96,-99.99,,,0.00,weatherlink.com 1.10,2013-02-03 14:56:00,
2013-02-03 07:11:00,40.1,39.0,30.20,SE,136,0.0,-999.0,96,-99.99,,,0.00,weatherlink.com 1.10,2013-02-03 15:11:00,
2013-02-03 07:26:00,40.0,39.0,30.21,SE,136,0.0,-999.0,96,-99.99,,,0.00,weatherlink.com 1.10,2013-02-03 15:26:00,
2013-02-03 07:41:00,39.9,39.0,30.21,SE,136,0.0,-999.0,96,-99.99,,,0.00,weatherlink.com 1.10,2013-02-03 15:41:00,
2013-02-03 07:56:00,40.0,39.0,30.21,SE,136,0.0,-999.0,96,-99.99,,,0.00,weatherlink.com 1.10,2013-02-03 15:56:00,
2013-02-03 08:11:00,40.3,39.0,30.21,SE,136,0.0,-999.0,96,-99.99,,,0.00,weatherlink.com 1.10,2013-02-03 16:11:00,
2013-02-03 08:26:00,40.5,40.0,30.22,SE,136,0.0,-999.0,96,-99.99,,,0.00,weatherlink.com 1.10,2013-02-03 16:26:00,
2013-02-03 08:41:00,42.4,42.0,30.22,SE,136,0.0,-999.0,97,-99.99,,,0.00,weatherlink.com 1.10,2013-02-03 16:41:00,
2013-02-03 08:56:00,45.3,45.0,30.22,SE,136,0.0,-999.0,97,-99.99,,,0.00,weatherlink.com 1.10,2013-02-03 16:56:00,
2013-02-03 09:11:00,47.7,47.0,30.22,SE,136,0.0,-999.0,97,-99.99,,,0.00,weatherlink.com 1.10,2013-02-03 17:11:00,
2013-02-03 09:26:00,49.9,49.0,30.21,SE,136,0.0,-999.0,98,-99.99,,,0.00,weatherlink.com 1.10,2013-02-03 17:26:00,
2013-02-03 09:41:00,52.3,51.0,30.22,SSE,157,1.0,-999.0,94,-99.99,,,0.00,weatherlink.com 1.10,2013-02-03 17:41:00,
2013-02-03 09:56:00,54.9,50.0,30.22,SSE,157,1.0,-999.0,82,-99.99,,,0.00,weatherlink.com 1.10,2013-02-03 17:56:00,
2013-02-03 10:11:00,56.7,50.0,30.22,SSE,159,0.0,-999.0,77,-99.99,,,0.00,weatherlink.com 1.10,2013-02-03 18:11:00,
2013-02-03 10:27:00,58.9,50.0,30.22,SSE,159,1.0,-999.0,73,-99.99,,,0.00,weatherlink.com 1.10,2013-02-03 18:27:00,
2013-02-03 10:41:00,59.7,49.0,30.22,East,81,2.0,-999.0,69,-99.99,,,0.00,weatherlink.com 1.10,2013-02-03 18:41:00,
2013-02-03 10:57:00,59.4,49.0,30.21,South,170,0.0,-999.0,69,-99.99,,,0.00,weatherlink.com 1.10,2013-02-03 18:57:00,
2013-02-03 11:11:00,60.2,49.0,30.20,SSW,194,2.0,-999.0,67,-99.99,,,0.00,weatherlink.com 1.10,2013-02-03 19:11:00,
2013-02-03 11:27:00,59.8,47.0,30.20,SSE,167,1.0,-999.0,64,-99.99,,,0.00,weatherlink.com 1.10,2013-02-03 19:27:00,
2013-02-03 11:41:00,59.6,48.0,30.18,SE,136,0.0,-999.0,65,-99.99,,,0.00,weatherlink.com 1.10,2013-02-03 19:41:00,
2013-02-03 11:57:00,59.9,48.0,30.19,SSE,161,0.0,-999.0,65,-99.99,,,0.00,weatherlink.com 1.10,2013-02-03 19:57:00,
2013-02-03 12:11:00,60.7,49.0,30.18,SSW,192,2.0,-999.0,65,-99.99,,,0.00,weatherlink.com 1.10,2013-02-03 20:11:00,
2013-02-03 12:26:00,61.8,48.0,30.18,East,92,2.0,-999.0,61,-99.99,,,0.00,weatherlink.com 1.10,2013-02-03 20:26:00,
2013-02-03 12:41:00,61.6,47.0,30.17,South,188,3.0,-999.0,60,-99.99,,,0.00,weatherlink.com 1.10,2013-02-03 20:41:00,
2013-02-03 12:57:00,62.0,48.0,30.17,WSW,252,2.0,-999.0,61,-99.99,,,0.00,weatherlink.com 1.10,2013-02-03 20:57:00,
2013-02-03 13:12:00,62.2,48.0,30.17,West,271,1.0,-999.0,61,-99.99,,,0.00,weatherlink.com 1.10,2013-02-03 21:12:00,
2013-02-03 13:27:00,62.6,49.0,30.16,SSW,192,1.0,-999.0,62,-99.99,,,0.00,weatherlink.com 1.10,2013-02-03 21:27:00,
2013-02-03 13:42:00,62.8,49.0,30.15,SSE,161,1.0,-999.0,60,-99.99,,,0.00,weatherlink.com 1.10,2013-02-03 21:42:00,
2013-02-03 13:57:00,62.9,50.0,30.14,SE,145,3.0,-999.0,62,-99.99,,,0.00,weatherlink.com 1.10,2013-02-03 21:57:00,
2013-02-03 14:12:00,62.5,49.0,30.14,SSE,161,3.0,-999.0,62,-99.99,,,0.00,weatherlink.com 1.10,2013-02-03 22:12:00,
2013-02-03 14:27:00,62.0,50.0,30.14,South,178,2.0,-999.0,65,-99.99,,,0.00,weatherlink.com 1.10,2013-02-03 22:27:00,
2013-02-03 14:42:00,63.5,51.0,30.13,SE,136,2.0,-999.0,63,-99.99,,,0.00,weatherlink.com 1.10,2013-02-03 22:42:00,
2013-02-03 14:57:00,63.5,50.0,30.13,SSE,150,1.0,-999.0,62,-99.99,,,0.00,weatherlink.com 1.10,2013-02-03 22:57:00,
2013-02-03 15:12:00,64.1,50.0,30.12,ESE,119,0.0,-999.0,61,-99.99,,,0.00,weatherlink.com 1.10,2013-02-03 23:12:00,
2013-02-03 15:27:00,64.5,51.0,30.12,SSE,161,0.0,-999.0,62,-99.99,,,0.00,weatherlink.com 1.10,2013-02-03 23:27:00,
2013-02-03 15:42:00,64.7,51.0,30.12,South,189,0.0,-999.0,61,-99.99,,,0.00,weatherlink.com 1.10,2013-02-03 23:42:00,
2013-02-03 15:57:00,64.3,51.0,30.12,South,189,2.0,-999.0,62,-99.99,,,0.00,weatherlink.com 1.10,2013-02-03 23:57:00,
2013-02-03 16:12:00,63.7,50.0,30.11,South,186,0.0,-999.0,62,-99.99,,,0.00,weatherlink.com 1.10,2013-02-04 00:12:00,
2013-02-03 16:27:00,62.2,51.0,30.12,SSE,166,0.0,-999.0,66,-99.99,,,0.00,weatherlink.com 1.10,2013-02-04 00:27:00,
2013-02-03 16:42:00,59.6,49.0,30.12,SSE,166,0.0,-999.0,69,-99.99,,,0.00,weatherlink.com 1.10,2013-02-04 00:42:00,
2013-02-03 16:57:00,57.6,49.0,30.12,SSE,166,0.0,-999.0,74,-99.99,,,0.00,weatherlink.com 1.10,2013-02-04 00:57:00,
2013-02-03 17:12:00,55.7,49.0,30.12,SSE,166,0.0,-999.0,78,-99.99,,,0.00,weatherlink.com 1.10,2013-02-04 01:12:00,
2013-02-03 17:27:00,54.1,48.0,30.12,SSE,166,0.0,-999.0,80,-99.99,,,0.00,weatherlink.com 1.10,2013-02-04 01:27:00,
2013-02-03 17:42:00,52.4,47.0,30.12,SSE,166,0.0,-999.0,82,-99.99,,,0.00,weatherlink.com 1.10,2013-02-04 01:42:00,
2013-02-03 17:57:00,50.9,47.0,30.12,SSE,166,0.0,-999.0,85,-99.99,,,0.00,weatherlink.com 1.10,2013-02-04 01:57:00,
2013-02-03 18:14:00,49.7,46.0,30.12,SSE,166,0.0,-999.0,87,-99.99,,,0.00,weatherlink.com 1.10,2013-02-04 02:14:00,
2013-02-03 18:27:00,48.7,45.0,30.12,SSE,166,0.0,-999.0,88,-99.99,,,0.00,weatherlink.com 1.10,2013-02-04 02:27:00,
2013-02-03 18:42:00,47.8,45.0,30.13,SSE,166,0.0,-999.0,89,-99.99,,,0.00,weatherlink.com 1.10,2013-02-04 02:42:00,
2013-02-03 18:57:00,47.0,44.0,30.13,SSE,166,0.0,-999.0,90,-99.99,,,0.00,weatherlink.com 1.10,2013-02-04 02:57:00,
2013-02-03 19:12:00,46.3,44.0,30.13,SSE,166,0.0,-999.0,90,-99.99,,,0.00,weatherlink.com 1.10,2013-02-04 03:12:00,
2013-02-03 19:27:00,45.8,43.0,30.13,SSE,166,0.0,-999.0,91,-99.99,,,0.00,weatherlink.com 1.10,2013-02-04 03:27:00,
2013-02-03 19:42:00,45.3,43.0,30.13,SSE,166,0.0,-999.0,92,-99.99,,,0.00,weatherlink.com 1.10,2013-02-04 03:42:00,
2013-02-03 19:57:00,44.9,43.0,30.13,SSE,166,0.0,-999.0,92,-99.99,,,0.00,weatherlink.com 1.10,2013-02-04 03:57:00,
2013-02-03 20:12:00,44.5,42.0,30.13,SSE,166,0.0,-999.0,92,-99.99,,,0.00,weatherlink.com 1.10,2013-02-04 04:12:00,
2013-02-03 20:27:00,44.2,42.0,30.13,SSE,166,0.0,-999.0,93,-99.99,,,0.00,weatherlink.com 1.10,2013-02-04 04:27:00,
2013-02-03 20:42:00,44.0,42.0,30.13,SSE,166,0.0,-999.0,94,-99.99,,,0.00,weatherlink.com 1.10,2013-02-04 04:42:00,
2013-02-03 20:57:00,43.8,42.0,30.14,SSE,166,0.0,-999.0,93,-99.99,,,0.00,weatherlink.com 1.10,2013-02-04 04:57:00,
2013-02-03 21:12:00,43.7,42.0,30.13,SSE,166,0.0,-999.0,94,-99.99,,,0.00,weatherlink.com 1.10,2013-02-04 05:12:00,
2013-02-03 21:27:00,43.5,42.0,30.14,SSE,166,0.0,-999.0,94,-99.99,,,0.00,weatherlink.com 1.10,2013-02-04 05:27:00,
2013-02-03 21:42:00,43.6,42.0,30.13,SSE,166,0.0,-999.0,95,-99.99,,,0.00,weatherlink.com 1.10,2013-02-04 05:42:00,
2013-02-03 21:57:00,43.6,42.0,30.13,SSE,166,0.0,-999.0,95,-99.99,,,0.00,weatherlink.com 1.10,2013-02-04 05:57:00,
2013-02-03 22:12:00,43.3,42.0,30.13,SSE,166,0.0,-999.0,94,-99.99,,,0.00,weatherlink.com 1.10,2013-02-04 06:12:00,
2013-02-03 22:27:00,43.1,42.0,30.14,SSE,166,0.0,-999.0,95,-99.99,,,0.00,weatherlink.com 1.10,2013-02-04 06:27:00,
2013-02-03 22:42:00,42.9,42.0,30.14,SSE,166,0.0,-999.0,95,-99.99,,,0.00,weatherlink.com 1.10,2013-02-04 06:42:00,
2013-02-03 22:57:00,43.0,42.0,30.14,SSE,166,0.0,-999.0,95,-99.99,,,0.00,weatherlink.com 1.10,2013-02-04 06:57:00,
2013-02-03 23:13:00,43.0,42.0,30.14,SSE,166,0.0,-999.0,95,-99.99,,,0.00,weatherlink.com 1.10,2013-02-04 07:13:00,
2013-02-03 23:27:00,42.8,42.0,30.14,SSE,166,0.0,-999.0,95,-99.99,,,0.00,weatherlink.com 1.10,2013-02-04 07:27:00,
2013-02-03 23:42:00,42.6,41.0,30.14,SSE,166,0.0,-999.0,95,-99.99,,,0.00,weatherlink.com 1.10,2013-02-04 07:42:00,
2013-02-03 23:57:00,42.5,41.0,30.14,SSE,166,0.0,-999.0,95,-99.99,,,0.00,weatherlink.com 1.10,2013-02-04 07:57:00,